Location: Newark
(43.0000°N, 1.6781°W)
Time: 00:40:15
(UTC+00:00)

Vanguard 1 Rocket - Pass Details

Date: 24 April 2021
Orbit: 652 x 4224 km, 34.3° (Epoch: 06 May)

Event Time Altitude Azimuth Distance (km) Brightness Sun altitude
Rises 17:30:56 0° 256° (WSW) 2,967 11.5 15.0°
Reaches altitude 10° 17:35:12 10° 215° (SW) 2,110 9.8 14.3°
Maximum altitude 17:36:11 11° 202° (SSW) 2,114 9.6 14.1°
Drops below altitude 10° 17:37:12 10° 190° (S) 2,211 9.5 13.9°
Sets 17:42:19 0° 151° (SSE) 3,593 10.1 13.0°
